• In France
  • List of Countries
  • For 7 days
  • Water Temperature
  • Satellite Maps
  • Weather Map
  • Weather Widgets
  • user-avatar
    Login

    Hourly Weather Yukovo

    Today, 20 September, Thursday

    Time Temperature Precipitation Wind Pressure Humidity
    00:00 +17°C° 0 mm 2 mps 751 mmHg 93%
    01:00 +16°C° 0 mm 2 mps 752 mmHg 95%
    02:00 +15°C° 0 mm 2 mps 752 mmHg 97%
    03:00 +15°C° 0 mm 2 mps 752 mmHg 97%
    04:00 +14°C° 0 mm 2 mps 752 mmHg 97%
    05:00 +14°C° 0 mm 2 mps 752 mmHg 98%
    06:00 +15°C° 0 mm 2 mps 753 mmHg 94%
    07:00 +15°C° 0 mm 2 mps 753 mmHg 91%
    08:00 +16°C° 0 mm 2 mps 753 mmHg 87%
    09:00 +18°C° 0 mm 3 mps 753 mmHg 79%
    10:00 +19°C° 0 mm 3 mps 753 mmHg 71%
    11:00 +21°C° 0 mm 3 mps 753 mmHg 62%
    12:00 +22°C° 0 mm 3 mps 753 mmHg 59%
    13:00 +24°C° 0 mm 3 mps 753 mmHg 56%
    14:00 +25°C° 0 mm 3 mps 753 mmHg 53%
    15:00 +24°C° 0 mm 3 mps 753 mmHg 59%
    16:00 +23°C° 0 mm 2 mps 753 mmHg 64%
    17:00 +21°C° 0 mm 2 mps 753 mmHg 69%
    18:00 +20°C° 0 mm 2 mps 753 mmHg 74%
    19:00 +18°C° 0 mm 2 mps 753 mmHg 78%
    20:00 +17°C° 0 mm 2 mps 753 mmHg 82%
    21:00 +17°C° 0 mm 2 mps 753 mmHg 83%
    22:00 +16°C° 0 mm 2 mps 753 mmHg 85%
    23:00 +16°C° 0 mm 2 mps 754 mmHg 86%

    Tomorrow, 21 September, Friday

    Time Temperature Precipitation Wind Pressure Humidity
    00:00 +16°C° 0 mm 2 mps 754 mmHg 89%
    01:00 +16°C° 0 mm 2 mps 754 mmHg 91%
    02:00 +16°C° 0 mm 2 mps 754 mmHg 94%
    03:00 +16°C° 0 mm 2 mps 754 mmHg 95%
    04:00 +16°C° 0 mm 2 mps 754 mmHg 96%
    05:00 +16°C° 0 mm 2 mps 754 mmHg 97%
    06:00 +17°C° 0 mm 2 mps 754 mmHg 92%
    07:00 +18°C° 0 mm 2 mps 754 mmHg 88%
    08:00 +19°C° 0 mm 3 mps 754 mmHg 84%
    09:00 +21°C° 0 mm 3 mps 754 mmHg 77%
    10:00 +22°C° 0 mm 3 mps 754 mmHg 70%
    11:00 +25°C° 0 mm 4 mps 754 mmHg 64%
    12:00 +26°C° 0.1 mm 4 mps 754 mmHg 61%
    13:00 +27°C° 0.1 mm 4 mps 753 mmHg 59%
    14:00 +27°C° 0.1 mm 4 mps 753 mmHg 56%
    15:00 +26°C° 0 mm 4 mps 753 mmHg 61%
    16:00 +25°C° 0 mm 3 mps 752 mmHg 65%
    17:00 +24°C° 0 mm 3 mps 752 mmHg 70%
    18:00 +22°C° 0 mm 3 mps 752 mmHg 72%
    19:00 +21°C° 0 mm 3 mps 752 mmHg 74%
    20:00 +20°C° 0 mm 4 mps 751 mmHg 76%
    21:00 +20°C° 0 mm 4 mps 751 mmHg 76%
    22:00 +19°C° 0 mm 4 mps 751 mmHg 76%
    23:00 +19°C° 0 mm 4 mps 751 mmHg 76%

    Day after tomorrow, 22 September, Saturday

    Time Temperature Precipitation Wind Pressure Humidity
    00:00 +19°C° 0 mm 4 mps 750 mmHg 75%
    01:00 +19°C° 0 mm 4 mps 750 mmHg 74%
    02:00 +19°C° 0 mm 5 mps 749 mmHg 73%
    03:00 +19°C° 0 mm 5 mps 748 mmHg 72%
    04:00 +17°C° 0 mm 5 mps 748 mmHg 71%
    05:00 +17°C° 0 mm 5 mps 747 mmHg 71%
    06:00 +19°C° 0 mm 5 mps 747 mmHg 69%
    07:00 +19°C° 0 mm 5 mps 747 mmHg 67%
    08:00 +19°C° 0 mm 6 mps 747 mmHg 66%
    09:00 +19°C° 0.2 mm 6 mps 747 mmHg 68%
    10:00 +17°C° 0.2 mm 6 mps 747 mmHg 70%
    11:00 +17°C° 0.2 mm 6 mps 748 mmHg 73%
    12:00 +15°C° 0.6 mm 5 mps 748 mmHg 79%
    13:00 +13°C° 0.6 mm 4 mps 749 mmHg 85%
    14:00 +11°C° 0.6 mm 3 mps 749 mmHg 90%
    15:00 +12°C° 0.4 mm 3 mps 749 mmHg 91%
    16:00 +12°C° 0.4 mm 3 mps 749 mmHg 91%
    17:00 +12°C° 0.4 mm 3 mps 749 mmHg 92%
    18:00 +11°C° 0.4 mm 3 mps 750 mmHg 91%
    19:00 +11°C° 0.4 mm 3 mps 750 mmHg 90%
    20:00 +11°C° 0.4 mm 3 mps 750 mmHg 90%
    21:00 +11°C° 0.1 mm 3 mps 750 mmHg 89%
    22:00 +10°C° 0.1 mm 3 mps 750 mmHg 89%
    23:00 +10°C° 0.1 mm 3 mps 750 mmHg 88%

    23 September, Sunday

    Time Temperature Precipitation Wind Pressure Humidity
    00:00 +10°C° 0 mm 3 mps 750 mmHg 89%
    01:00 +9°C° 0 mm 3 mps 749 mmHg 90%
    02:00 +9°C° 0 mm 2 mps 749 mmHg 91%
    03:00 +8°C° 0 mm 2 mps 749 mmHg 91%
    04:00 +8°C° 0 mm 2 mps 749 mmHg 92%
    05:00 +8°C° 0 mm 3 mps 748 mmHg 93%
    06:00 +8°C° 0 mm 3 mps 748 mmHg 89%
    07:00 +8°C° 0 mm 4 mps 748 mmHg 86%
    08:00 +10°C° 0 mm 4 mps 747 mmHg 82%
    09:00 +11°C° 0 mm 4 mps 747 mmHg 76%
    10:00 +12°C° 0 mm 5 mps 747 mmHg 70%
    11:00 +13°C° 0 mm 5 mps 747 mmHg 63%
    12:00 +14°C° 0.2 mm 5 mps 747 mmHg 63%
    13:00 +14°C° 0.2 mm 5 mps 747 mmHg 62%
    14:00 +14°C° 0.2 mm 5 mps 746 mmHg 61%
    15:00 +13°C° 0.1 mm 5 mps 746 mmHg 65%
    16:00 +12°C° 0.1 mm 4 mps 746 mmHg 68%
    17:00 +12°C° 0.1 mm 3 mps 746 mmHg 72%
    18:00 +11°C° 0 mm 3 mps 747 mmHg 75%
    19:00 +10°C° 0 mm 3 mps 747 mmHg 79%
    20:00 +9°C° 0 mm 3 mps 747 mmHg 82%
    21:00 +8°C° 0 mm 3 mps 747 mmHg 84%
    22:00 +8°C° 0 mm 3 mps 746 mmHg 86%
    23:00 +8°C° 0 mm 3 mps 746 mmHg 88%

    24 September, Monday

    Time Temperature Precipitation Wind Pressure Humidity
    00:00 +7°C° 0 mm 3 mps 746 mmHg 90%
    01:00 +7°C° 0 mm 2 mps 746 mmHg 92%
    02:00 +7°C° 0 mm 2 mps 746 mmHg 94%
    03:00 +7°C° 0 mm 2 mps 745 mmHg 94%
    04:00 +7°C° 0 mm 2 mps 744 mmHg 95%
    05:00 +7°C° 0 mm 2 mps 744 mmHg 95%
    06:00 +7°C° 0.3 mm 2 mps 743 mmHg 94%
    07:00 +7°C° 0.3 mm 2 mps 742 mmHg 93%
    08:00 +8°C° 0.3 mm 3 mps 742 mmHg 92%
    09:00 +7°C° 1.4 mm 4 mps 740 mmHg 92%
    10:00 +7°C° 1.4 mm 4 mps 739 mmHg 92%
    11:00 +7°C° 1.4 mm 5 mps 738 mmHg 92%
    12:00 +7°C° 3.7 mm 5 mps 737 mmHg 93%
    13:00 +7°C° 3.7 mm 5 mps 735 mmHg 93%
    14:00 +6°C° 3.7 mm 5 mps 734 mmHg 94%
    15:00 +6°C° 4.2 mm 5 mps 733 mmHg 95%
    16:00 +6°C° 4.2 mm 5 mps 732 mmHg 95%
    17:00 +6°C° 4.2 mm 5 mps 731 mmHg 95%
    18:00 +5°C° 2.4 mm 6 mps 731 mmHg 95%
    19:00 +5°C° 2.4 mm 6 mps 731 mmHg 94%
    20:00 +5°C° 2.4 mm 7 mps 732 mmHg 94%
    21:00 +5°C° 1.8 mm 7 mps 732 mmHg 93%
    22:00 +5°C° 1.8 mm 8 mps 733 mmHg 91%
    23:00 +5°C° 1.8 mm 8 mps 734 mmHg 90%

    25 September, Tuesday

    Time Temperature Precipitation Wind Pressure Humidity
    00:00 +5°C° 1.1 mm 8 mps 735 mmHg 89%
    01:00 +5°C° 1.1 mm 8 mps 736 mmHg 87%
    02:00 +4°C° 1.1 mm 8 mps 737 mmHg 86%
    03:00 +4°C° 0.4 mm 8 mps 738 mmHg 85%
    04:00 +4°C° 0.4 mm 8 mps 739 mmHg 85%
    05:00 +4°C° 0.4 mm 8 mps 740 mmHg 84%
    06:00 +4°C° 0.1 mm 7 mps 741 mmHg 83%
    07:00 +4°C° 0.1 mm 7 mps 742 mmHg 82%
    08:00 +4°C° 0.1 mm 7 mps 743 mmHg 81%
    09:00 +5°C° 0.1 mm 7 mps 744 mmHg 77%
    10:00 +5°C° 0.1 mm 7 mps 745 mmHg 72%
    11:00 +6°C° 0.1 mm 7 mps 746 mmHg 68%
    12:00 +6°C° 0.1 mm 7 mps 746 mmHg 63%
    13:00 +8°C° 0.1 mm 7 mps 747 mmHg 59%
    14:00 +9°C° 0.1 mm 7 mps 748 mmHg 54%
    15:00 +8°C° 0 mm 6 mps 748 mmHg 58%
    16:00 +8°C° 0 mm 5 mps 749 mmHg 61%
    17:00 +7°C° 0 mm 4 mps 750 mmHg 64%
    18:00 +6°C° 0 mm 4 mps 750 mmHg 66%
    19:00 +7°C° 0 mm 3 mps 751 mmHg 69%
    20:00 +5°C° 0 mm 3 mps 752 mmHg 72%
    21:00 +5°C° 0 mm 3 mps 752 mmHg 73%
    22:00 +4°C° 0 mm 3 mps 753 mmHg 74%
    23:00 +4°C° 0 mm 4 mps 753 mmHg 75%
    Show more